Regional Weather Roundup
Issued by NWS

Home | Current Version | Previous Version | Text Only | Print | Product List | Glossary Off
Versions: 1 2 3 4 5 6 7 8 9 10 11 12 13 14 15 16 17 18 19 20 21 22 23 24 25 26 27 28 29 30 31 32 33 34 35 36 37 38 39 40 41 42 43 44 45 46 47 48 49 50

000
ASUS43 KIND 050209
RWRIN

WEATHER ROUNDUP FOR INDIANA
NATIONAL WEATHER SERVICE INDIANAPOLIS IN
1000 PM EDT TUE AUG 04 2015

NOTE: "FAIR" INDICATES FEW OR NO CLOUDS BELOW 12,000 FEET WITH NO
SIGNIFICANT WEATHER AND/OR OBSTRUCTIONS TO VISIBILITY.

* - STATION DOES NOT REPORT WEATHER SUCH AS PRECIPITATION OR FOG.

+ - STATION NOT QUALITY CONTROLLED BY THE NATIONAL WEATHER SERVICE.
    USE DATA WITH CAUTION...ESPECIALLY DEWPOINT AND RELATIVE
    HUMIDITY OBSERVATIONS.

INZ001>003-010>013-019-020-050300-
NORTHWEST INDIANA

CITY           SKY/WX    TMP DP  RH WIND       PRES   REMARKS
GARY /AIRPORT/ MOCLDY    66  64  94 CALM      30.02R
KNOX *+        MOCLDY    64  61  88 CALM      30.01R
LA PORTE +     MOCLDY    65  63  94 CALM      30.03R
MICHIGAN CITY+ MOCLDY    64  55  72 CALM      30.02R
MONTICELLO +   PTCLDY    70  62  75 CALM      30.00R
RENSSELAER +   MOCLDY    68  61  77 W3        30.01R
VALPARAISO     MOCLDY    67  59  75 CALM      30.02R

$$

LMZ046-743>745-050300-
SOUTHERN LAKE MICHIGAN

STATION/POSITION TIME  TEMP    WIND        PRES    WAVE
                       AIR SEA DIR/SP/G            HT
                 (UTC) (F)     (DEG/KT/KT) (MB)    (FT)
BURNS HARBOR     0100   75      40/  6/  8 1015.6R
MICHIGAN CITY    0100   73      20/ 11/ 13   N/A
5NW MICH CITY    0200   73 74   70/ 10/ 12   N/A     1

$$

INZ004-005-014>016-021>024-050300-
NORTH CENTRAL INDIANA

CITY           SKY/WX    TMP DP  RH WIND       PRES   REMARKS
GOSHEN         LGT RAIN  68  59  73 N5        30.01R
LOGANSPORT +   PTCLDY    64  59  82 CALM      30.02R
PERU/GRISSOM   PTCLDY    66  61  83 W5        30.01R
ROCHESTER +    MOCLDY    72  63  73 W3        30.02R
SOUTH BEND     MOCLDY    67  58  72 N6        30.03R
WARSAW +       MOCLDY    68  61  77 CALM      30.01R

$$

INZ006>009-017-018-025>027-050300-
NORTHEAST INDIANA

CITY           SKY/WX    TMP DP  RH WIND       PRES   REMARKS
ANGOLA *+      CLOUDY    64  55  72 CALM      30.01R
AUBURN +       MOCLDY    66  59  77 CALM      30.02R
FORT WAYNE     MOCLDY    67  61  81 SW5       30.01R
HUNTINGTON +   FAIR      69  61  76 CALM      30.01R

$$

INZ028-029-035-036-043>045-051>053-050300-
WEST CENTRAL INDIANA

CITY           SKY/WX    TMP DP  RH WIND       PRES   REMARKS
CRAWFORDSVL +  CLOUDY    67  66  97 CALM        N/A
GREENCASTLE +  CLOUDY    68  61  77 CALM      30.03R
LAFAYETTE      MOCLDY    67  63  87 CALM      30.01R
TERRE HAUTE    CLOUDY    70  65  84 CALM      30.00F

$$

INZ030>032-037>040-046>048-054>057-064-065-050300-
CENTRAL INDIANA

CITY           SKY/WX    TMP DP  RH WIND       PRES   REMARKS
COLUMBUS       CLEAR     72  59  64 SW7       30.03
FISHERS *+     CLOUDY    68  64  88 CALM      30.02R
FRANKFORT +    MOCLDY   N/A N/A N/A CALM      30.04R
GREENWOOD *+   CLOUDY    72  59  64 SW3       30.03R
INDIANAPOLIS   CLOUDY    74  58  57 W6        30.01R
-EAGLE CREEK   CLOUDY    73  61  65 CALM      30.01R
KOKOMO *+      PTCLDY    70  59  68 W5        30.01R
MARION +       CLEAR     65  60  85 CALM      30.02R
MT COMFORT *+  MOCLDY    68 N/A N/A CALM      30.03R
SHELBYVILLE    CLOUDY    72  64  76 SW7       30.02R
ZIONSVILLE +   MOCLDY    69  64  83 CALM      30.03R

$$

INZ033-034-041-042-049-050-058-059-050300-
EAST CENTRAL INDIANA

CITY           SKY/WX    TMP DP  RH WIND       PRES   REMARKS
MUNCIE         PTCLDY    65  61  87 CALM      30.02R

$$

INZ060-061-067>069-081>083-085>088-050300-
SOUTHWEST INDIANA

CITY           SKY/WX    TMP DP  RH WIND       PRES   REMARKS
EVANSVILLE     CLOUDY    70  67  90 S7        30.01R
HUNTINGBURG *+ CLOUDY    72  66  83 E3        29.99S
WASHINGTON +   CLOUDY    72  67  83 CALM      29.99S

$$

INZ062-063-066-070>080-084-089>092-050300-
SOUTH CENTRAL AND SOUTHEAST INDIANA

CITY           SKY/WX    TMP DP  RH WIND       PRES   REMARKS
BLOOMINGTON    CLOUDY    70  67  90 CALM      30.02F
MADISON *+     CLOUDY    73  68  83 CALM      30.06R
NORTH VERNON + CLOUDY    72  70  94 CALM      30.04R
SEYMOUR +      CLOUDY    75  68  78 CALM      30.01S

$$




USA.gov is the U.S. government's official web portal to all federal, state and local government web resources and services.